Torna al catalogo

CZ-6A DEB

AttivoSSO
NORAD 55234·DEBRIS·🇨🇳 China

Lanciato Nov 11, 2022 da Taiyuan Satellite Launch Center

Loading…

Prossimi Passaggi (prossime 24 ore)

TLE

AggiornatoSource: Space-Track

Epoca: Sep 14, 2026, 07:53 UTC

1 55234U 22151XB  26257.32862521  .00000714  00000-0  51366-3 0  9997
2 55234  98.8696 221.3123 0110090 170.2516 190.0818 13.97150826195446

Traccia CZ-6A DEB in tempo reale con AllMySat

Download on the App Store